DW9584 Weather Reports


time (UTC)temp
C
wind
direction
speed
KPH
gust
KPH
rain 1hr
cm
rain 24hr
cm
rain mn
cm
humidity
%
barometer
mb
20260903071513 21 347 0.0 0.0 0.08 1.24 0.99 96 1017.1
20260903070016 21 347 0.0 1.6 0.38 1.24 0.99 95 1017.4
20260903064521 21 195 0.0 3.2 0.99 1.24 0.99 95 1017.5
20260903063023 21 195 0.0 1.6 0.97 1.22 0.97 95 1017.3
20260903061539 21 195 0.0 3.2 0.91 1.17 0.91 95 1017.7
20260903060026 21 195 0.0 1.6 0.61 0.86 0.61 95 1019.2
20260903054525 21 303 0.0 3.2 0.00 0.25 0.00 95 1019.4
20260903053020 21 326 0.0 0.0 0.00 0.25 0.00 95 1017.8
20260903051515 21 326 0.0 0.0 0.00 0.25 0.00 95 1017.7
20260903050016 21 326 0.0 3.2 0.00 0.25 0.00 95 1017.8
20260903044511 21 326 0.0 0.0 0.00 0.25 0.00 95 1017.7
20260903043010 21 326 0.0 0.0 0.00 0.25 0.00 95 1018.0
20260903041505 21 326 0.0 0.0 0.00 0.25 0.00 95 1018.2
20260903040004 21 326 0.0 0.0 0.00 0.25 0.00 95 1018.5
20260903034504 21 326 0.0 3.2 0.00 0.25 0.25 94 1018.6
20260903033026 21 326 0.0 0.0 0.00 0.25 0.25 94 1018.5
20260903031525 21 326 0.0 0.0 0.00 0.25 0.25 94 1018.7
20260903030018 21 326 0.0 0.0 0.00 0.25 0.25 94 1018.4
20260903024513 21 326 0.0 3.2 0.00 0.28 0.25 94 1018.7
20260903023010 21 326 0.0 0.0 0.00 0.28 0.25 94 1018.6
20260903021508 21 326 0.0 3.2 0.00 0.28 0.25 94 1018.2
20260903020010 21 342 0.0 1.6 0.00 0.28 0.25 95 1018.0
20260903014504 22 342 0.0 0.0 0.00 0.28 0.25 95 1018.1
20260903013027 22 342 0.0 1.6 0.00 0.28 0.25 95 1018.3
20260903011524 21 342 0.0 3.2 0.00 0.28 0.25 95 1018.4
20260903010017 22 342 0.0 3.2 0.00 0.28 0.25 95 1018.7
20260903004514 22 1 0.0 1.6 0.00 1.19 0.25 95 1018.4
20260903003015 22 1 0.0 0.0 0.00 1.88 0.25 95 1018.4
20260903001507 22 1 0.0 3.2 0.00 1.88 0.25 95 1018.3
20260903000008 22 1 0.0 3.2 0.00 1.88 0.25 95 1018.2
20260902234528 22 1 0.0 3.2 0.00 1.88 0.25 95 1018.0
20260902233030 22 1 0.0 0.0 0.00 1.88 0.25 95 1018.0
20260902231540 22 1 0.0 3.2 0.00 1.88 0.25 95 1018.1
20260902230023 22 1 0.0 3.2 0.00 1.88 0.25 95 1018.1
20260902224518 22 18 0.0 0.0 0.00 1.88 0.25 95 1018.3
20260902223027 22 18 0.0 0.0 0.00 1.88 0.25 95 1018.5
20260902221520 22 18 0.0 0.0 0.00 1.88 0.25 95 1018.8
20260902220010 22 18 0.0 3.2 0.00 1.88 0.25 95 1018.8
20260902214540 22 20 0.0 1.6 0.00 1.88 0.25 95 1018.5
20260902213030 22 20 0.0 1.6 0.00 1.88 0.25 95 1018.5
20260902211531 22 336 0.0 3.2 0.00 1.88 0.25 95 1018.2
20260902210025 22 336 0.0 0.0 0.00 1.88 0.25 95 1018.4
20260902204522 22 336 0.0 0.0 0.00 1.88 0.25 95 1018.5
20260902203018 22 336 0.0 0.0 0.00 1.88 0.25 95 1018.6
20260902201517 22 336 0.0 3.2 0.00 1.88 0.25 96 1018.4
20260902200031 22 334 0.0 3.2 0.00 1.88 0.25 96 1018.3
20260902194547 22 23 0.0 0.0 0.00 1.88 0.25 96 1018.4
20260902193030 22 23 0.0 3.2 0.00 1.88 0.25 95 1018.5
20260902191505 22 349 0.0 3.2 0.05 1.88 0.25 95 1018.6
20260902190006 22 349 0.0 0.0 0.10 1.88 0.25 95 1018.8
20260902184503 22 349 0.0 0.0 0.20 1.88 0.25 95 1019.1
20260902183028 22 349 0.0 0.0 0.25 1.88 0.25 94 1019.2
20260902181518 22 349 0.0 0.0 0.20 1.83 0.20 94 1019.0
20260902180014 22 349 0.0 0.0 0.15 1.78 0.15 93 1019.4
20260902174512 22 349 0.0 0.0 0.05 1.68 0.05 92 1019.9
20260902173013 22 349 0.0 0.0 0.00 1.63 0.00 90 1020.4
20260902171511 23 349 0.0 3.2 0.00 1.63 0.00 89 1020.4
20260902170012 23 356 0.0 0.0 0.00 1.63 0.00 90 1020.4
20260902164531 23 1 0.0 3.2 0.00 1.63 0.00 90 1020.4
20260902163026 22 1 0.0 3.2 0.00 1.63 0.00 91 1020.0
20260902161533 22 18 0.0 3.2 0.00 1.63 0.00 90 1020.0
20260902160022 23 18 0.0 3.2 0.00 1.63 0.00 90 1020.0
20260902154515 22 51 0.0 3.2 0.00 1.63 0.00 92 1019.8
20260902153012 22 338 0.0 3.2 0.00 1.63 0.00 93 1020.1
20260902151518 22 338 0.0 3.2 0.00 1.63 0.00 94 1020.2
20260902150008 22 338 1.6 3.2 0.00 1.63 0.00 95 1020.4
20260902144529 21 352 0.0 4.8 0.00 1.63 0.00 96 1020.2
20260902143029 21 360 0.0 3.2 0.00 1.63 0.00 96 1019.9
20260902141532 21 360 0.0 3.2 0.00 1.63 0.00 96 1019.9
20260902140024 21 360 0.0 1.6 0.00 1.63 0.00 96 1020.0
20260902134527 21 360 0.0 3.2 0.00 1.63 0.00 96 1020.2
20260902133017 21 14 0.0 3.2 0.00 1.63 0.00 97 1019.8
20260902131511 20 14 0.0 3.2 0.00 1.63 0.00 97 1019.7
20260902130030 21 347 0.0 3.2 0.00 1.63 0.00 97 1019.6
20260902124531 21 297 0.0 3.2 0.00 1.63 0.00 97 1019.6
20260902123031 20 297 0.0 3.2 0.00 1.63 0.00 97 1019.5
20260902121528 21 297 0.0 3.2 0.00 1.63 0.00 97 1019.2
20260902120029 21 297 0.0 0.0 0.00 1.63 0.00 97 1019.1
20260902114523 21 297 0.0 3.2 0.00 1.63 0.00 97 1019.2
20260902113019 21 297 0.0 0.0 0.00 1.63 0.00 96 1019.4
20260902111515 21 297 0.0 0.0 0.00 1.63 0.00 96 1019.3
20260902110039 21 297 0.0 3.2 0.00 1.63 0.00 96 1019.3
20260902104547 21 297 0.0 3.2 0.00 1.63 0.00 96 1019.2
20260902103032 21 297 0.0 3.2 0.00 1.63 0.00 96 1018.8
20260902101508 21 281 0.0 3.2 0.00 1.63 0.00 96 1018.9
20260902100005 21 340 0.0 1.6 0.00 1.63 0.00 96 1018.8
20260902094504 21 340 0.0 3.2 0.00 1.63 0.00 96 1018.8
20260902093003 21 1 0.0 3.2 0.00 1.63 0.00 96 1018.5
20260902091504 21 1 0.0 0.0 0.00 1.63 0.00 96 1018.4
20260902090020 21 1 0.0 3.2 0.00 1.63 0.00 96 1018.3
20260902084516 21 345 0.0 3.2 0.00 1.63 0.00 96 1018.2
20260902083009 21 345 0.0 0.0 0.00 1.63 0.00 96 1018.1
20260902081511 21 345 0.0 0.0 0.00 1.63 0.00 96 1017.9
20260902080013 21 345 0.0 3.2 0.00 1.63 0.00 96 1018.0
20260902074506 22 345 0.0 0.0 0.00 1.63 0.00 96 1017.9
20260902073004 22 345 0.0 3.2 0.00 1.63 0.00 96 1017.5